Weather History for Owosso, MI

Change the Weather History Date:

Saturday, December 29, 2012

  Actual Average (KFNT) Record (KFNT)
Temperature  
Mean Temperature 26 °F 24 °F  
Max Temperature 30 °F 31 °F 63 °F (1984)
Min Temperature 21 °F 17 °F -7 °F (1944)
Degree Days  
Heating Degree Days 40 41  
Month to date heating degree days 1081  
Since 1 July heating degree days 2562  
Cooling Degree Days 0 0  
Month to date cooling degree days 0  
Year to date cooling degree days 531  
Moisture  
Dew Point 22 °F    
Average Humidity 82    
Maximum Humidity 90    
Minimum Humidity 68    
Precipitation  
Precipitation 0.00 in 0.06 in 1.37 in (1940)
Month to date precipitation 1.81  
Year to date precipitation 31.26  
Snow  
Snow 0.00 in 0.40 in 3.20 in (1980)
Month to date snowfall 10.9  
Since 1 July snowfall 13.8  
Snow Depth -    
Sea Level Pressure  
Sea Level Pressure 29.90 in    
Wind  
Wind Speed 3 mph (NW)    
Max Wind Speed 10 mph    
Max Gust Speed -    
Visibility 9 miles    
Events Snow    
T = Trace of Precipitation, MM = Missing Value Source: NWS Daily Summary

Daily Weather History Graph

Daily Weather History Graph

Search for Another Location

Airport:

Trip Planner

Search our weather history database for the weather conditions in past years. The results will help you decide how hot, cold, wet, or windy it might be!

Date:

Astronomy

Dec. 29, 2012 Rise Set
Actual Time 8:07 AM EST 5:10 PM EST
Civil Twilight 7:35 AM EST 5:42 PM EST
Nautical Twilight 6:59 AM EST 6:18 PM EST
Astronomical Twilight 6:24 AM EST 6:52 PM EST
Moon 6:45 PM EST (12/29) 8:38 AM EST (12/29)
Length of Visible Light 10h 07m
Length of Day
9h 02m
Full, 98% of the Moon is Illuminated
Dec 29
Full
Jan 4
Last Quarter
Jan 11
New
Jan 18
First Quarter
Jan 26
Full

Hourly Weather History & Observations

Time (EST) Temp. Windchill Dew Point Humidity Pressure Visibility Wind Dir Wind Speed Gust Speed Precip Events Conditions
12:15 AM 26.2 °F 22.1 °F 21.7 °F 83% 29.93 in 10.0 mi ENE 3.5 mph - N/A   Overcast
12:35 AM 26.2 °F 20.7 °F 22.1 °F 84% 29.92 in 10.0 mi ENE 4.6 mph - N/A   Overcast
12:55 AM 26.1 °F 21.9 °F 22.1 °F 85% 29.91 in 10.0 mi ENE 3.5 mph - N/A   Overcast
1:15 AM 26.2 °F 22.1 °F 22.5 °F 86% 29.91 in 10.0 mi ENE 3.5 mph - N/A   Overcast
1:35 AM 26.1 °F - 22.5 °F 86% 29.90 in 10.0 mi Calm Calm - N/A   Overcast
1:55 AM 25.7 °F - 22.5 °F 88% 29.89 in 10.0 mi Calm Calm - N/A   Overcast
2:14 AM 25.9 °F - 22.8 °F 88% 29.89 in 10.0 mi Calm Calm - N/A   Mostly Cloudy
2:35 AM 26.1 °F 21.9 °F 22.8 °F 88% 29.89 in 7.0 mi ENE 3.5 mph - N/A   Mostly Cloudy
2:55 AM 26.1 °F - 22.8 °F 88% 29.89 in 10.0 mi Calm Calm - N/A   Overcast
3:15 AM 26.2 °F 22.1 °F 23.0 °F 88% 29.88 in 10.0 mi NE 3.5 mph - N/A   Overcast
3:35 AM 26.2 °F - 23.0 °F 88% 29.88 in 10.0 mi Calm Calm - N/A   Overcast
3:55 AM 26.2 °F - 23.0 °F 88% 29.88 in 10.0 mi Calm Calm - N/A   Overcast
4:15 AM 26.2 °F 22.1 °F 23.0 °F 88% 29.87 in 10.0 mi NNE 3.5 mph - N/A   Overcast
4:35 AM 26.2 °F 22.1 °F 23.2 °F 88% 29.86 in 10.0 mi NE 3.5 mph - N/A   Overcast
4:55 AM 26.2 °F 22.1 °F 23.4 °F 89% 29.86 in 10.0 mi NNE 3.5 mph - N/A   Overcast
5:15 AM 26.2 °F 22.1 °F 23.0 °F 88% 29.85 in 10.0 mi NNE 3.5 mph - N/A   Overcast
5:35 AM 26.2 °F 22.1 °F 23.0 °F 88% 29.85 in 10.0 mi NNE 3.5 mph - N/A   Overcast
5:55 AM 26.2 °F - 22.8 °F 87% 29.85 in 7.0 mi Calm Calm - N/A Snow Light Snow
6:15 AM 26.2 °F - 22.6 °F 86% 29.85 in 7.0 mi Calm Calm - N/A Snow Light Snow
6:35 AM 26.1 °F - 22.1 °F 85% 29.85 in 7.0 mi Calm Calm - N/A Snow Light Snow
6:54 AM 25.9 °F - 22.1 °F 86% 29.85 in 5.0 mi Calm Calm - N/A Snow Light Snow
7:15 AM 25.7 °F 21.5 °F 22.3 °F 87% 29.85 in 4.0 mi NNE 3.5 mph - N/A Snow Light Snow
7:35 AM 25.7 °F - 22.5 °F 88% 29.85 in 4.0 mi Calm Calm - N/A Snow Light Snow
7:55 AM 25.5 °F - 22.6 °F 89% 29.85 in 4.0 mi Calm Calm - N/A Snow Light Snow
8:15 AM 25.5 °F - 22.6 °F 89% 29.85 in 3.0 mi Calm Calm - N/A Snow Light Snow
8:35 AM 25.3 °F - 22.6 °F 89% 29.84 in 4.0 mi Calm Calm - N/A Snow Light Snow
8:55 AM 25.5 °F - 23.0 °F 90% 29.84 in 4.0 mi Calm Calm - N/A Snow Light Snow
9:15 AM 25.3 °F 19.7 °F 22.8 °F 90% 29.84 in 4.0 mi North 4.6 mph - N/A Snow Light Snow
9:35 AM 25.2 °F 20.9 °F 22.6 °F 90% 29.84 in 5.0 mi North 3.5 mph - N/A   Mostly Cloudy
9:55 AM 26.2 °F 20.7 °F 23.4 °F 89% 29.85 in 10.0 mi NNW 4.6 mph - N/A   Scattered Clouds
10:15 AM 26.6 °F 20.0 °F 23.5 °F 88% 29.86 in 5.0 mi NNW 5.8 mph - N/A   Mostly Cloudy
10:34 AM 26.6 °F 19.1 °F 23.5 °F 88% 29.86 in 10.0 mi NNW 6.9 mph - N/A   Overcast
10:55 AM 27.0 °F 23.0 °F 23.0 °F 85% 29.87 in 10.0 mi North 3.5 mph - N/A   Overcast
11:15 AM 27.9 °F 21.5 °F 23.0 °F 82% 29.86 in 10.0 mi NW 5.8 mph - N/A   Overcast
11:35 AM 28.4 °F 21.2 °F 22.8 °F 80% 29.85 in 10.0 mi North 6.9 mph - N/A   Light Freezing Rain
11:55 AM 28.9 °F 25.2 °F 22.8 °F 78% 29.85 in 10.0 mi NW 3.5 mph - N/A   Overcast
12:15 PM 29.1 °F 24.1 °F 22.8 °F 77% 29.85 in 7.0 mi NNW 4.6 mph - N/A Snow Light Snow
12:35 PM 29.3 °F 25.6 °F 23.4 °F 78% 29.84 in 4.0 mi NW 3.5 mph - N/A Snow Light Snow
12:55 PM 29.7 °F 24.7 °F 23.7 °F 79% 29.84 in 5.0 mi WNW 4.6 mph - N/A Snow Light Snow
1:14 PM 29.8 °F 24.9 °F 23.9 °F 79% 29.84 in 5.0 mi NNW 4.6 mph - N/A Snow Light Snow
1:35 PM 29.8 °F 23.9 °F 23.7 °F 78% 29.84 in 10.0 mi NNW 5.8 mph - N/A   Overcast
1:55 PM 30.2 °F 24.3 °F 23.4 °F 76% 29.84 in 10.0 mi NNW 5.8 mph - N/A   Overcast
2:15 PM 30.2 °F 26.7 °F 23.7 °F 77% 29.84 in 10.0 mi NNW 3.5 mph - N/A   Overcast
2:35 PM 30.4 °F 26.9 °F 23.9 °F 77% 29.85 in 10.0 mi North 3.5 mph - N/A Snow Light Snow
2:55 PM 30.2 °F 26.7 °F 23.9 °F 77% 29.86 in 10.0 mi NNW 3.5 mph - N/A   Overcast
3:15 PM 30.7 °F 24.9 °F 24.4 °F 77% 29.87 in 10.0 mi NW 5.8 mph - N/A   Overcast
3:35 PM 30.7 °F 23.3 °F 24.1 °F 76% 29.87 in 10.0 mi WNW 8.1 mph - N/A   Overcast
3:55 PM 30.7 °F 23.3 °F 24.3 °F 77% 29.88 in 10.0 mi WNW 8.1 mph - N/A   Overcast
4:15 PM 30.6 °F 21.8 °F 23.2 °F 74% 29.89 in 10.0 mi NW 10.4 mph - N/A   Overcast
4:35 PM 30.6 °F 23.1 °F 22.5 °F 72% 29.89 in 10.0 mi NW 8.1 mph - N/A   Overcast
4:55 PM 30.4 °F 22.2 °F 21.7 °F 70% 29.90 in 10.0 mi WNW 9.2 mph - N/A   Overcast
5:15 PM 30.2 °F 21.9 °F 21.0 °F 69% 29.91 in 10.0 mi NW 9.2 mph - N/A   Overcast
5:34 PM 29.7 °F 22.8 °F 20.3 °F 68% 29.92 in 10.0 mi NW 6.9 mph - N/A   Overcast
6:15 PM 28.9 °F 20.4 °F 19.9 °F 69% 29.94 in 10.0 mi NW 9.2 mph - N/A   Overcast
6:34 PM 28.4 °F 19.7 °F 19.4 °F 69% 29.94 in 10.0 mi WNW 9.2 mph - N/A   Overcast
7:15 PM 27.5 °F 20.2 °F 18.5 °F 69% 29.96 in 10.0 mi WNW 6.9 mph - N/A   Scattered Clouds
7:35 PM 26.6 °F 20.0 °F 18.5 °F 71% 29.97 in 10.0 mi WNW 5.8 mph - N/A   Scattered Clouds
7:55 PM 26.2 °F 20.7 °F 18.0 °F 71% 29.97 in 10.0 mi NW 4.6 mph - N/A   Scattered Clouds
8:15 PM 24.4 °F 20.1 °F 16.7 °F 72% 29.98 in 10.0 mi West 3.5 mph - N/A   Clear
8:35 PM 23.2 °F 18.7 °F 16.2 °F 75% 29.98 in 10.0 mi West 3.5 mph - N/A   Clear
8:54 PM 22.1 °F 15.9 °F 16.2 °F 78% 29.99 in 10.0 mi West 4.6 mph - N/A   Clear
9:15 PM 22.5 °F 16.3 °F 17.2 °F 80% 29.99 in 10.0 mi West 4.6 mph - N/A   Mostly Cloudy
9:35 PM 22.1 °F 15.9 °F 16.7 °F 80% 30.00 in 10.0 mi West 4.6 mph - N/A   Mostly Cloudy
9:55 PM 22.1 °F 13.7 °F 16.7 °F 80% 30.01 in 10.0 mi West 6.9 mph - N/A   Mostly Cloudy
10:15 PM 22.1 °F 14.7 °F 16.9 °F 80% 30.01 in 10.0 mi West 5.8 mph - N/A   Mostly Cloudy
10:35 PM 21.6 °F 15.3 °F 16.7 °F 82% 30.02 in 10.0 mi WSW 4.6 mph - N/A   Scattered Clouds
10:55 PM 23.0 °F 17.0 °F 18.1 °F 82% 30.03 in 10.0 mi West 4.6 mph - N/A   Mostly Cloudy
11:15 PM 22.6 °F 16.5 °F 17.6 °F 81% 30.04 in 10.0 mi WSW 4.6 mph - N/A   Overcast
11:35 PM 22.1 °F 14.7 °F 17.6 °F 83% 30.04 in 10.0 mi WSW 5.8 mph - N/A   Scattered Clouds
11:55 PM 21.4 °F 15.1 °F 16.3 °F 81% 30.05 in 10.0 mi West 4.6 mph - N/A   Scattered Clouds